CDT,Max TemperatureF,Mean TemperatureF,Min TemperatureF,Max Dew PointF,MeanDew PointF,Min DewpointF,Max Humidity, Mean Humidity, Min Humidity, Max Sea Level PressureIn, Mean Sea Level PressureIn, Min Sea Level PressureIn, Max VisibilityMiles, Mean VisibilityMiles, Min VisibilityMiles, Max Wind SpeedMPH, Mean Wind SpeedMPH, Max Gust SpeedMPH,PrecipitationIn, CloudCover, Events, WindDirDegrees
2013-7-1,84,69,53,57,53,50,100,67,34,30.17,30.14,30.09,10,9,7,10,3,16,0.00,0,,30
2013-7-2,81,67,52,57,52,48,93,63,33,30.14,30.10,30.04,10,10,10,10,4,18,0.00,0,,51
2013-7-3,82,68,53,58,54,51,93,65,36,30.08,30.03,29.97,10,10,10,14,5,17,0.00,2,,150
2013-7-4,86,72,58,61,58,56,84,62,40,30.00,29.95,29.91,10,10,10,17,8,23,0.00,1,,187
2013-7-5,89,76,62,60,58,56,84,58,32,29.96,29.91,29.86,10,10,10,22,10,29,0.00,1,,186
2013-7-6,91,80,69,66,63,59,73,57,41,29.93,29.89,29.85,10,10,10,18,11,25,0.00,1,,179
2013-7-7,90,81,71,71,68,65,93,70,47,29.89,29.85,29.82,10,8,2,16,6,21,T,4,Rain-Thunderstorm,172
2013-7-8,87,77,67,72,70,68,100,78,55,29.97,29.91,29.83,10,8,4,9,4,10,0.00,3,,360
2013-7-9,86,77,67,73,70,66,100,78,55,29.96,29.85,29.77,10,8,2,23,9,30,T,3,Rain-Thunderstorm,222
2013-7-10,80,72,63,66,57,51,84,62,39,30.02,29.95,29.84,10,10,8,20,8,28,0.00,2,,323
2013-7-11,85,71,57,60,55,50,100,67,33,30.11,30.06,30.01,10,8,5,13,3,18,0.00,0,,189
2013-7-12,87,76,65,60,59,58,84,61,37,30.08,30.02,29.98,10,10,8,21,11,28,0.00,0,,175
2013-7-13,82,74,65,63,60,57,87,66,45,30.10,30.05,29.98,10,10,7,18,9,24,0.06,3,Rain,170
2013-7-14,88,77,66,65,62,60,93,68,42,30.20,30.15,30.11,10,10,8,16,6,20,0.00,1,,177
2013-7-15,91,77,62,69,64,60,100,69,38,30.25,30.21,30.17,10,8,2,16,4,21,0.00,1,,194
2013-7-16,95,84,73,72,69,67,87,64,41,30.21,30.19,30.16,10,10,8,16,6,22,0.00,2,,219
2013-7-17,96,84,71,72,68,64,93,65,36,30.24,30.19,30.11,10,10,9,13,6,20,0.00,1,,247
2013-7-18,97,86,74,71,68,65,93,64,35,30.10,29.94,29.76,10,10,10,23,11,33,0.00,0,,220
2013-7-19,88,77,66,72,64,51,87,61,34,29.85,29.76,29.68,10,10,10,25,11,33,0.03,1,Rain-Thunderstorm,276
2013-7-20,83,73,62,60,55,47,87,60,32,29.97,29.90,29.83,10,10,10,16,6,20,0.00,2,,14
2013-7-21,75,66,57,64,59,47,93,73,52,29.99,29.92,29.86,10,9,2,18,7,22,0.30,5,Rain-Thunderstorm,102
2013-7-22,87,74,61,75,65,55,100,78,55,29.85,29.73,29.63,10,10,4,16,8,24,0.04,3,Rain-Thunderstorm,198
2013-7-23,76,67,57,56,51,48,86,62,38,30.02,29.93,29.81,10,10,10,15,6,22,0.00,2,,356
2013-7-24,75,62,49,55,50,46,93,66,38,30.09,30.04,29.99,10,10,10,9,2,14,0.00,3,,236
2013-7-25,83,69,54,66,60,53,100,74,47,29.99,29.94,29.90,10,10,9,15,7,21,0.04,3,Rain-Thunderstorm,225
2013-7-26,74,62,50,64,57,48,93,71,49,30.03,29.93,29.87,10,10,5,22,10,29,0.01,6,Rain,305
2013-7-27,60,53,46,52,47,43,93,72,51,30.02,29.96,29.87,10,10,5,21,10,31,0.04,7,Rain,303
2013-7-28,69,59,49,54,50,47,100,76,51,30.06,29.96,29.90,10,9,2,16,6,21,0.00,7,,318
2013-7-29,77,63,49,57,51,47,100,72,43,30.14,30.10,30.07,10,9,2,10,2,13,0.00,1,,203
2013-7-30,75,68,61,64,60,56,93,77,61,30.14,30.09,30.04,10,10,8,12,4,15,0.04,8,Rain,199
2013-7-31,82,70,57,64,61,51,100,70,39,30.06,30.02,29.94,10,8,4,18,7,25,0.00,4,,285